KJ4W Weather Reports


time (UTC)temp
F
wind
direction
speed
knots
gust
knots
rain 1hr
in
rain 24hr
in
rain mn
in
humidity
%
barometer
mb
20260906121113 75 277 0.0 0.0 0.00 0.00 0.00 98 1012.9
20260906115614 74 277 0.0 0.0 0.00 0.00 0.00 98 1012.6
20260906114112 74 277 0.0 0.0 0.00 0.00 0.00 97 1012.4
20260906112613 74 277 0.0 0.0 0.00 0.00 0.00 98 1012.0
20260906111112 75 277 0.0 0.0 0.00 0.00 0.00 98 1012.0
20260906105613 75 277 0.0 0.0 0.00 0.00 0.00 97 1011.9
20260906104113 75 277 0.0 0.0 0.00 0.00 0.00 97 1011.6
20260906102612 75 277 0.0 0.0 0.00 0.00 0.00 96 1011.5
20260906101114 75 277 0.0 0.0 0.00 0.00 0.00 97 1011.1
20260906095612 75 277 0.0 0.0 0.00 0.00 0.00 97 1011.3
20260906094113 75 277 0.0 0.0 0.00 0.00 0.00 96 1010.8
20260906092614 76 277 0.0 0.0 0.00 0.00 0.00 96 1010.9
20260906091114 76 277 0.0 0.0 0.00 0.00 0.00 96 1011.0
20260906085613 76 277 0.0 0.0 0.00 0.00 0.00 96 1011.0
20260906084113 76 277 0.0 0.0 0.00 0.00 0.00 95 1010.9
20260906082613 76 277 0.0 0.0 0.00 0.00 0.00 95 1010.9
20260906081113 76 277 0.0 0.0 0.00 0.00 0.00 95 1011.0
20260906075612 77 277 0.0 0.0 0.00 0.00 0.00 94 1010.8
20260906074114 77 277 0.0 0.0 0.00 0.00 0.00 93 1010.8
20260906072613 77 277 0.0 0.0 0.00 0.00 0.00 93 1010.7
20260906071115 78 277 0.0 0.0 0.00 0.00 0.00 93 1010.9
20260906065613 78 5 0.0 0.0 0.00 0.00 0.00 93 1011.0
20260906064112 78 263 0.0 0.0 0.00 0.00 0.00 93 1011.0
20260906062613 78 263 0.0 0.0 0.00 0.00 0.00 93 1011.1
20260906061114 78 263 0.0 0.0 0.00 0.00 0.00 92 1011.1
20260906055635 78 263 0.0 0.0 0.00 0.00 0.00 91 1011.1
20260906054137 78 263 0.0 0.0 0.00 0.00 0.00 90 1011.2
20260906052636 78 263 0.0 0.0 0.00 0.00 0.00 90 1011.1
20260906051137 79 298 0.0 0.0 0.00 0.00 0.00 91 1011.4
20260906045635 78 298 0.0 0.0 0.00 0.00 0.00 91 1011.4
20260906044136 78 298 0.0 0.0 0.00 0.00 0.00 90 1011.4
20260906042636 78 298 0.0 0.0 0.00 0.00 0.00 89 1011.5
20260906041136 79 298 0.0 0.0 0.00 0.00 0.00 89 1011.5
20260906035635 79 298 0.0 0.0 0.00 0.00 0.00 89 1011.5
20260906034136 80 298 0.0 0.0 0.00 0.00 0.00 90 1011.3
20260906032636 80 298 0.0 0.0 0.00 0.00 0.00 90 1011.1
20260906031136 80 298 0.0 0.0 0.00 0.00 0.00 90 1010.9
20260906025635 80 298 0.0 0.0 0.00 0.00 0.00 86 1010.8
20260906024136 80 298 0.0 0.0 0.00 0.00 0.00 86 1010.8
20260906022636 80 298 0.0 0.0 0.00 0.00 0.00 86 1010.6
20260906021135 81 298 0.0 0.0 0.00 0.00 0.00 85 1010.5
20260906015635 81 298 0.0 0.0 0.00 0.00 0.00 83 1010.3
20260906014136 82 298 0.0 0.0 0.00 0.00 0.00 82 1010.3
20260906012636 82 298 0.0 0.0 0.00 0.00 0.00 82 1010.2
20260906011135 83 298 0.0 0.0 0.00 0.00 0.00 82 1010.1
20260906005635 83 298 0.0 0.0 0.00 0.00 0.00 82 1010.1
20260906004136 84 298 0.0 0.0 0.00 0.00 0.00 81 1010.0
20260906002635 85 298 0.0 0.0 0.00 0.00 0.00 79 1010.0
20260906001135 87 298 0.0 0.0 0.00 0.00 0.00 74 1010.0
20260905235634 88 298 0.0 0.0 0.00 0.00 0.00 70 1010.2
20260905234135 90 298 0.0 0.0 0.00 0.00 0.00 66 1010.2
20260905232634 92 298 0.0 0.0 0.00 0.00 0.00 62 1010.1
20260905231136 92 298 0.0 0.0 0.00 0.00 0.00 60 1010.2
20260905225634 93 298 0.0 0.0 0.00 0.00 0.00 61 1010.2
20260905224136 94 298 0.0 0.0 0.00 0.00 0.00 60 1010.2
20260905222635 94 332 0.0 0.0 0.00 0.00 0.00 57 1010.1
20260905221136 95 12 0.0 0.0 0.00 0.00 0.00 54 1010.2
20260905215634 96 355 0.0 0.0 0.00 0.00 0.00 50 1010.2
20260905214135 96 344 0.0 0.0 0.00 0.00 0.00 50 1010.4
20260905212634 97 227 0.0 0.0 0.00 0.00 0.00 47 1010.5
20260905211135 97 166 0.0 0.0 0.00 0.00 0.00 46 1010.5
20260905205635 99 46 1.7 0.0 0.00 0.00 0.00 45 1010.6
20260905204134 100 355 0.0 0.0 0.00 0.00 0.00 43 1010.7
20260905202634 100 184 2.6 0.0 0.00 0.00 0.00 46 1010.8
20260905201135 99 268 0.9 0.0 0.00 0.00 0.00 51 1011.1
20260905195634 100 261 1.7 0.0 0.00 0.00 0.00 50 1011.2
20260905194135 100 274 0.9 0.0 0.00 0.00 0.00 47 1011.6
20260905192634 99 92 0.9 0.0 0.00 0.00 0.00 49 1012.0
20260905191135 98 143 0.0 0.0 0.00 0.00 0.00 48 1012.3
20260905185634 98 247 2.6 0.0 0.00 0.00 0.00 51 1012.3
20260905184134 98 280 3.5 0.0 0.00 0.00 0.00 54 1012.4
20260905182633 97 346 2.6 0.0 0.00 0.00 0.00 50 1012.6
20260905181135 97 28 0.9 0.0 0.00 0.00 0.00 50 1012.8
20260905175640 97 32 2.6 0.0 0.00 0.00 0.00 52 1012.9
20260905174134 96 32 0.0 0.0 0.00 0.00 0.00 61 1013.2
20260905172633 97 94 0.0 0.0 0.00 0.00 0.00 53 1013.2
20260905171135 97 13 1.7 0.0 0.00 0.00 0.00 53 1013.3
20260905165635 97 229 0.9 0.0 0.00 0.00 0.00 52 1013.4
20260905164134 96 248 1.7 0.0 0.00 0.00 0.00 54 1013.5
20260905162633 96 213 0.9 0.0 0.00 0.00 0.00 55 1013.7
20260905161136 95 228 0.0 0.0 0.00 0.00 0.00 57 1013.7
20260905155635 94 161 0.0 0.0 0.00 0.00 0.00 57 1013.8
20260905154135 93 261 0.0 0.0 0.00 0.00 0.00 66 1014.0
20260905152635 91 268 0.0 0.0 0.00 0.00 0.00 65 1014.1
20260905151134 90 242 0.0 0.0 0.00 0.00 0.00 69 1014.2
20260905145633 88 275 0.0 0.0 0.00 0.00 0.00 73 1014.3
20260905144133 87 247 0.0 0.0 0.00 0.00 0.00 77 1014.2
20260905142635 85 245 0.0 0.0 0.00 0.00 0.00 81 1014.3
20260905141135 83 47 0.0 0.0 0.00 0.00 0.00 84 1014.2
20260905135635 81 54 0.0 0.0 0.00 0.00 0.00 91 1014.1
20260905134133 80 139 0.0 0.0 0.00 0.00 0.00 94 1014.0
20260905132634 78 139 0.0 0.0 0.00 0.00 0.00 96 1014.1
20260905131134 77 138 0.0 0.0 0.00 0.00 0.00 97 1014.1
20260905125633 76 139 0.0 0.0 0.00 0.00 0.00 97 1013.8
20260905124134 76 138 0.0 0.0 0.00 0.00 0.00 98 1013.9
20260905122634 75 139 0.0 0.0 0.00 0.00 0.00 98 1013.7